North Tumbulgum, Australia

1:54 PM AEDT on January 18, 2018 (GMT +1100)
North Tumbulgum

Weather History for 94592 - October, 2013

Change the Weather History Date:

Tuesday, October 8, 2013

  Actual Average Record
Temperature  
Mean Temperature 68 °F -  
Max Temperature 77 °F - - ()
Min Temperature 60 °F - - ()
Cooling Degree Days 4    
Growing Degree Days 18 (Base 50)    
Moisture  
Dew Point 59 °F    
Average Humidity 72    
Maximum Humidity 94    
Minimum Humidity 49    
Precipitation  
Precipitation 0.02 in - - ()
Sea Level Pressure  
Sea Level Pressure 29.91 in    
Wind  
Wind Speed 7 mph ()    
Max Wind Speed 17 mph    
Max Gust Speed -    
Visibility 6.1 miles    
Events      
T = Trace of Precipitation, MM = Missing Value Source: Averaged Metar Reports

Daily Weather History Graph

Daily Weather History Graph

Search for Another Location

Airport or City:

Trip Planner

Search our weather history database for the weather conditions in past years. The results will help you decide how hot, cold, wet, or windy it might be!

Date:

Astronomy

Oct. 08, 2013 Rise Set
Actual Time 6:17 AM AEDT 6:50 PM AEDT
Civil Twilight 5:53 AM AEDT 7:13 PM AEDT
Nautical Twilight 5:26 AM AEDT 7:41 PM AEDT
Astronomical Twilight 4:57 AM AEDT 8:10 PM AEDT
Moon 8:18 AM AEDT (10/8) 10:06 PM AEDT (10/8)
Length of Visible Light 13h 20m
Length of Day
12h 32m
Waxing Crescent, 11% of the Moon is Illuminated
Oct 8
Waxing Crescent
Oct 12
First Quarter
Oct 19
Full
Oct 27
Last Quarter
Nov 3
New

Hourly Weather History & Observations

Time (AEDT) Temp. Dew Point Humidity Pressure Visibility Wind Dir Wind Speed Gust Speed Precip Events Conditions
12:00 AM 68.0 °F 59.0 °F 73% 29.86 in 6.2 mi South 6.9 mph - N/A   Mostly Cloudy
12:30 AM 68.0 °F 59.0 °F 73% 29.89 in 6.2 mi SSW 6.9 mph - N/A   Overcast
1:00 AM 68 °F 59 °F 64% 29.89 in - SSW 8.1 mph - -   Overcast
1:00 AM 68.0 °F 59.0 °F 73% 29.89 in 6.2 mi SSW 8.1 mph - N/A   Overcast
1:30 AM 68.0 °F 59.0 °F 73% 29.89 in 6.2 mi South 8.1 mph - N/A   Overcast
2:00 AM 66.2 °F 59.0 °F 78% 29.89 in 6.2 mi South 8.1 mph - N/A   Mostly Cloudy
2:30 AM 64.4 °F 59.0 °F 83% 29.86 in 6.2 mi South 5.8 mph - N/A   Scattered Clouds
3:00 AM 64.4 °F 59.0 °F 83% 29.86 in 6.2 mi SSW 4.6 mph - N/A   Mostly Cloudy
3:30 AM 64.4 °F 59.0 °F 83% 29.86 in 6.2 mi West 4.6 mph - N/A   Overcast
4:00 AM 64 °F 59 °F 78% 29.87 in - SSW 5.8 mph - -   Overcast
4:00 AM 64.4 °F 59.0 °F 83% 29.86 in 6.2 mi SSW 5.8 mph - N/A   Mostly Cloudy
4:30 AM 64.4 °F 57.2 °F 77% 29.86 in 6.2 mi SSW 6.9 mph - N/A   Scattered Clouds
5:00 AM 64.4 °F 59.0 °F 83% 29.86 in 6.2 mi SW 4.6 mph - N/A   Scattered Clouds
5:30 AM 62.6 °F 57.2 °F 82% 29.89 in 6.2 mi South 5.8 mph - N/A   Unknown
6:00 AM 60.8 °F 57.2 °F 88% 29.89 in 6.2 mi SW 4.6 mph - N/A   Unknown
6:30 AM 60.8 °F 57.2 °F 88% 29.89 in 6.2 mi West 4.6 mph - N/A   Unknown
7:00 AM 62 °F 59 °F 85% 29.90 in - WSW 3.5 mph - -  
7:00 AM 60.8 °F 59.0 °F 94% 29.89 in 6.2 mi WSW 3.5 mph - N/A   Unknown
7:30 AM 64.4 °F 59.0 °F 83% 29.89 in 6.2 mi SW 5.8 mph - N/A   Unknown
8:00 AM 68.0 °F 59.0 °F 73% 29.89 in 6.2 mi WSW 5.8 mph - N/A   Unknown
8:30 AM 71.6 °F 59.0 °F 64% 29.92 in 6.2 mi SSW 4.6 mph - N/A   Unknown
9:00 AM 71.6 °F 57.2 °F 60% 29.92 in 6.2 mi South 5.8 mph - N/A   Unknown
9:30 AM 71.6 °F 55.4 °F 57% 29.92 in 6.2 mi SE 5.8 mph - N/A   Scattered Clouds
10:00 AM 74 °F 58 °F 49% 29.91 in - NE 9.2 mph - -  
10:00 AM 73.4 °F 59.0 °F 61% 29.89 in 6.2 mi NE 9.2 mph - N/A   Scattered Clouds
10:30 AM 75.2 °F 59.0 °F 57% 29.89 in 6.2 mi ENE 10.4 mph - N/A   Scattered Clouds
11:00 AM 73.4 °F 59.0 °F 61% 29.89 in 6.2 mi ENE 11.5 mph - N/A   Scattered Clouds
11:30 AM 71.6 °F 59.0 °F 64% 29.89 in 6.2 mi ENE 11.5 mph - N/A   Mostly Cloudy
12:00 PM 73.4 °F 60.8 °F 65% 29.89 in 6.2 mi ENE 12.7 mph - N/A   Mostly Cloudy
12:30 PM 75.2 °F 60.8 °F 61% 29.86 in 6.2 mi ENE 12.7 mph - N/A   Unknown
1:00 PM 77 °F 61 °F 49% 29.87 in - ENE 11.5 mph - -  
1:00 PM 77.0 °F 60.8 °F 57% 29.86 in 6.2 mi ENE 11.5 mph - N/A   Scattered Clouds
1:30 PM 75.2 °F 59.0 °F 57% 29.86 in 6.2 mi ENE 12.7 mph - N/A   Scattered Clouds
2:00 PM 73.4 °F 59.0 °F 61% 29.86 in 6.2 mi ENE 11.5 mph - N/A   Unknown
2:30 PM 75.2 °F 59.0 °F 57% 29.83 in 6.2 mi ENE 12.7 mph - N/A   Unknown
3:00 PM 73.4 °F 59.0 °F 61% 29.83 in 6.2 mi NE 11.5 mph - N/A   Scattered Clouds
3:30 PM 73.4 °F 60.8 °F 65% 29.83 in 6.2 mi ENE 10.4 mph - N/A   Mostly Cloudy
4:00 PM 75 °F 60 °F 50% 29.85 in - ENE 11.5 mph - -  
4:00 PM 75.2 °F 60.8 °F 61% 29.83 in 6.2 mi ENE 11.5 mph - N/A   Scattered Clouds
4:30 PM 73.4 °F 57.2 °F 57% 29.86 in 6.2 mi ESE 15.0 mph - N/A   Mostly Cloudy
5:00 PM 71.6 °F 59.0 °F 64% 29.86 in 6.2 mi ESE 15.0 mph - N/A   Mostly Cloudy
5:30 PM 69.8 °F 60.8 °F 73% 29.89 in 6.2 mi SE 11.5 mph - N/A   Overcast
5:56 PM 64.4 °F 60.8 °F 88% 29.92 in 3.7 mi SE 17.3 mph - N/A   Overcast
6:00 PM 64.4 °F 60.8 °F 88% 29.92 in 3.7 mi SE 15.0 mph - N/A   Overcast
6:10 PM 64.4 °F 60.8 °F 88% 29.95 in 6.2 mi SE 12.7 mph - N/A   Overcast
6:30 PM 66.2 °F 62.6 °F 88% 29.95 in 6.2 mi SE 10.4 mph - N/A   Overcast
7:00 PM 65 °F 58 °F 72% 29.97 in - SE 13.8 mph - -   Overcast
7:00 PM 64.4 °F 59.0 °F 83% 29.98 in 6.2 mi SE 13.8 mph - N/A   Overcast
7:30 PM 64.4 °F 57.2 °F 77% 29.98 in 6.2 mi SSE 12.7 mph - N/A   Overcast
8:00 PM 66.2 °F 59.0 °F 78% 30.01 in 6.2 mi SSE 10.4 mph - N/A   Mostly Cloudy
8:30 PM 64.4 °F 57.2 °F 77% 30.01 in 6.2 mi South 9.2 mph - N/A   Mostly Cloudy
9:00 PM 64.4 °F 57.2 °F 77% 30.04 in 6.2 mi SSW 6.9 mph - N/A   Scattered Clouds
9:30 PM 62.6 °F 57.2 °F 82% 30.04 in 6.2 mi SSW 5.8 mph - N/A   Scattered Clouds
10:00 PM 63 °F 58 °F 78% 30.06 in - SW 3.5 mph - -   Overcast
10:00 PM 62.6 °F 57.2 °F 82% 30.06 in 6.2 mi SW 3.5 mph - N/A   Overcast
10:30 PM 64.4 °F 57.2 °F 77% 30.06 in 6.2 mi SSW 6.9 mph - N/A   Mostly Cloudy
11:00 PM 62.6 °F 57.2 °F 82% 30.06 in 6.2 mi SSW 4.6 mph - N/A   Mostly Cloudy
11:30 PM 62.6 °F 55.4 °F 77% 30.06 in 6.2 mi SSW 5.8 mph - N/A   Mostly Cloudy